SCP
1 1 1 1 1 1 1 1 1 1 1 1 1 1 1 1 1 0 0 0 0 0 0 0 0 0 1 1 1 0 0 0 0 0 0 1 1 1
0 1 1 1 1 1 1 1 1 1 1 1 1 1 1 1 1 1 0 0 0 0 0 0 0 0 0 1 0 0 0 0 0 0 0 1 1 1
0 0 1 1 1 1 1 1 1 1 0 0 0 1 1 1 1 1 1 0 0 0 0 0 0 0 0 0 0 0 0 0 0 0 0 0 0 0
0 0 0 0 1 1 1 1 1 1 1 0 0 0 1 0 0 1 1 1 0 0 0 0 0 0 0 0 0 0 0 0 0 0 0 0 0 0
0 0 0 0 0 1 1 1 1 1 1 1 1 1 1 0 0 0 1 1 0 0 0 0 0 0 0 0 0 0 0 0 0 0 0 0 0 0
0 0 0 0 0 0 1 1 1 1 1 1 1 1 1 0 0 0 1 1 1 0 0 0 0 0 0 0 0 0 0 0 0 0 0 0 0 0
0 0 0 0 0 0 0 1 1 1 1 1 1 1 1 1 1 0 1 1 1 0 0 0 0 0 0 0 0 0 0 0 0 0 0 0 0 0
0 0 0 0 0 0 0 0 1 1 1 1 1 1 1 1 1 1 1 1 1 0 0 0 0 0 0 0 0 0 0 0 0 0 0 0 0 0
0 0 0 0 0 0 0 0 0 1 1 1 1 1 1 1 1 1 1 1 1 1 0 0 0 0 0 0 0 0 0 0 0 0 0 0 0 0
0 0 0 0 0 0 0 0 0 0 0 1 1 1 1 1 1 1 1 1 1 1 0 0 0 0 0 0 0 0 0 0 0 0 0 0 0 0
0 0 0 0 0 0 0 0 0 0 0 0 1 0 0 0 1 1 1 1 1 1 0 0 0 0 0 0 0 0 0 0 0 0 0 0 0 0
0 0 0 0 0 0 0 0 0 0 0 1 1 0 0 0 1 1 1 1 1 1 1 0 1 0 0 0 0 0 0 0 0 0 0 0 0 0
0 0 0 0 0 0 0 0 0 0 0 1 1 1 0 1 1 1 1 1 1 1 1 1 1 1 0 0 0 0 0 0 0 0 0 0 0 0
0 0 0 0 0 0 0 0 0 0 0 1 1 1 1 1 1 2 2 2 2 1 1 1 1 0 0 0 0 0 0 0 0 0 0 0 0 0
0 0 0 0 0 0 0 0 0 0 0 0 0 1 1 1 1 2 2 2 2 1 1 1 0 0 0 0 0 0 0 0 0 0 0 0 0 0
0 0 0 0 0 0 0 0 0 0 0 0 0 1 1 1 2 2 2 2 2 1 1 1 0 0 0 0 0 0 0 0 0 0 0 0 0 0
0 0 0 0 0 0 0 0 0 0 0 0 0 1 1 1 1 1 2 2 1 1 0 0 0 0 0 0 0 0 0 0 0 0 0 0 0 0
0 0 0 0 0 0 0 0 0 0 0 0 0 1 1 1 1 1 1 1 1 1 0 0 0 0 0 0 0 0 0 0 0 0 0 0 0 0
0 0 0 0 0 0 0 0 0 0 0 0 0 1 1 1 1 1 1 1 1 0 0 0 1 0 0 0 0 0 0 0 0 0 0 0 0 0
0 0 0 0 0 0 0 0 0 0 0 0 0 1 1 1 1 1 1 1 0 0 0 0 1 1 0 0 0 0 0 0 0 0 0 0 0 0
0 0 0 0 0 0 0 0 0 0 0 0 0 1 1 1 1 0 0 0 0 0 0 0 1 1 1 1 1 0 0 0 0 0 0 0 0 0
0 0 0 0 0 0 0 0 0 0 0 0 0 1 1 1 0 0 0 0 0 0 0 0 1 1 1 1 1 0 0 0 0 0 0 0 0 0
0 0 0 0 0 0 0 0 0 0 0 0 0 0 0 0 0 0 0 0 0 1 1 1 1 1 1 1 0 0 0 0 0 0 0 0 0 0
Wind_Speed
5 5 4 4 4 4 4 4 4 3 4 3 3 3 3 3 5 4 5 6 7 8 8 8 8 8 8 8 8 8 8 9 9 9 8 8 8 9
4 5 5 4 4 4 4 4 4 4 4 3 3 2 3 4 4 5 5 6 7 8 8 8 8 8 9 8 8 8 9 9 9 8 8 8 9 9
4 5 6 5 4 4 4 4 4 4 5 4 2 2 3 4 3 4 4 4 4 8 8 9 9 9 9 9 9 8 8 8 8 9 8 9 9 9
5 5 5 4 5 4 4 5 4 5 5 5 3 2 3 3 3 3 3 4 4 6 8 8 9 9 10 10 9 9 9 9 9 9 9 9 9 10
5 5 5 5 5 4 4 4 4 4 4 4 4 2 2 2 2 3 4 3 4 4 6 8 9 9 10 9 9 9 9 10 10 10 10 9 9 9
4 4 5 6 6 5 4 5 4 4 4 4 3 3 3 2 2 3 3 3 4 4 4 5 7 9 10 10 10 10 10 10 10 10 10 10 10 10
3 4 4 6 7 6 5 5 5 4 3 3 3 3 3 3 3 3 4 3 3 3 3 3 4 5 6 8 10 11 11 11 11 11 11 10 10 10
4 3 4 5 6 7 7 7 7 6 6 4 4 5 5 5 4 4 3 3 4 2 3 4 3 5 5 5 8 10 11 11 11 11 11 11 11 11
4 3 3 3 4 4 5 6 7 9 9 7 6 7 6 5 5 5 5 5 5 3 3 4 3 5 5 6 9 10 11 11 11 11 11 10 10 10
4 4 4 4 4 4 4 4 5 6 7 6 6 7 6 5 6 6 5 4 4 4 4 4 4 4 4 5 8 10 10 11 11 11 10 10 10 10
3 4 5 5 5 5 3 4 5 5 6 7 8 7 8 8 6 4 4 4 4 3 4 4 3 3 3 4 5 8 9 10 10 11 11 10 10 9
3 3 5 5 6 5 4 5 6 6 4 4 5 5 6 6 8 7 6 5 3 3 3 3 2 2 3 3 3 4 5 7 10 10 10 10 9 5
3 3 3 5 6 7 6 6 8 7 5 5 4 4 4 4 5 6 6 6 5 4 3 4 3 3 3 3 3 3 4 4 4 5 8 9 9 7
4 4 4 6 7 7 6 8 9 7 4 4 4 4 4 4 5 5 6 6 6 6 5 5 4 4 4 4 4 3 3 3 3 4 3 5 6 8
4 5 6 7 6 5 7 8 6 4 4 4 5 5 5 4 4 3 4 4 5 5 5 6 6 5 5 5 4 4 3 3 3 3 3 3 3 3
3 4 4 5 5 5 5 4 4 4 5 5 5 4 4 3 3 3 3 3 2 3 4 6 7 7 5 6 5 5 4 3 3 3 3 3 3 4
2 1 2 2 2 3 3 3 3 3 4 4 4 4 4 4 3 3 3 3 3 4 3 3 4 4 6 5 5 6 5 4 4 3 3 3 4 4
2 2 3 3 4 4 4 4 4 4 4 4 4 4 4 4 3 3 3 4 4 4 4 3 2 2 2 3 6 6 4 4 3 3 3 4 4 4
2 3 4 4 4 4 4 4 4 4 4 4 4 4 4 4 4 3 3 3 4 4 4 4 4 4 4 4 3 5 5 4 3 3 3 4 4 4
3 4 4 4 4 4 4 4 4 4 3 4 4 4 4 4 4 4 4 4 4 4 4 4 4 5 5 4 3 3 5 5 4 4 3 3 3 3
4 5 5 4 4 4 4 4 4 4 4 3 4 4 4 4 4 4 4 4 4 3 4 4 4 4 2 2 2 3 3 4 5 4 3 3 3 3
4 4 4 4 4 4 4 4 4 4 4 3 4 4 4 4 5 5 4 4 4 4 4 3 2 2 3 4 4 4 3 2 2 3 4 4 4 4
4 4 4 4 4 4 4 4 4 4 4 4 4 4 4 4 4 4 4 4 4 4 3 3 2 3 3 3 3 3 4 3 2 1 2 3 4 4
Wind_Direction
215 214 214 216 211 211 204 195 195 231 252 246 242 233 227 231 230 225 228 229 224 222 220 220 222 223 224 227 228 230 229 227 228 233 235 238 241 244
220 219 221 222 215 212 210 210 208 211 242 244 236 244 237 242 233 228 231 232 229 224 221 219 222 223 224 225 227 228 229 227 226 229 232 236 240 242
226 223 229 221 216 214 207 205 209 204 230 254 241 242 231 245 249 237 234 233 233 225 222 223 225 225 226 227 227 225 226 225 225 227 232 235 238 240
230 226 233 224 221 217 210 213 214 209 215 242 247 237 235 242 246 244 244 235 233 228 224 226 226 225 226 226 224 224 226 226 225 226 230 234 236 238
226 225 231 224 227 221 216 218 218 214 213 225 244 241 247 247 249 257 252 246 242 235 229 230 229 227 228 227 225 224 225 228 229 229 231 234 237 237
234 233 232 225 224 220 220 220 217 215 212 221 237 244 247 244 226 242 258 248 251 248 245 238 232 230 231 229 226 224 225 227 229 230 230 231 232 232
239 239 236 231 223 217 218 214 209 213 216 224 232 236 238 227 227 224 242 257 255 242 245 242 235 237 235 230 228 228 227 228 230 232 233 232 230 230
234 243 245 238 235 229 227 216 205 208 213 218 229 233 239 233 229 224 229 240 259 226 225 248 233 242 242 236 232 230 230 230 230 231 233 233 231 231
223 230 243 245 233 231 236 235 228 223 215 212 224 234 236 230 223 231 227 228 244 238 216 250 241 248 249 244 235 231 230 230 230 230 230 230 230 232
229 227 231 246 243 230 233 241 242 236 227 221 227 236 239 236 224 227 230 237 253 237 211 240 244 252 260 253 237 231 231 231 231 231 231 231 231 233
242 233 227 237 243 228 223 240 253 256 244 235 234 242 245 241 228 217 214 218 245 241 207 220 239 253 261 259 249 233 232 232 231 231 231 231 231 233
260 250 237 237 243 228 219 230 245 252 251 255 253 254 249 243 223 217 215 218 233 246 207 199 220 227 259 249 252 246 236 233 233 232 230 229 224 225
253 256 249 242 245 242 230 229 236 241 245 243 249 255 253 246 236 226 217 215 223 236 206 190 213 215 235 259 260 251 239 237 234 233 227 223 217 211
242 250 248 246 249 248 240 238 239 237 238 239 243 249 249 247 244 237 230 228 230 238 218 196 215 218 227 246 254 249 246 238 231 236 234 220 222 220
247 250 251 251 255 254 247 244 237 228 225 231 240 246 245 245 247 244 238 233 240 238 224 216 216 221 225 237 243 243 255 251 229 228 229 224 220 208
259 268 262 253 249 250 257 247 228 221 223 234 241 247 248 246 241 233 233 222 234 250 236 223 217 217 231 235 236 245 239 236 226 226 232 236 227 218
248 266 260 260 259 258 257 256 243 230 231 236 238 243 244 244 245 232 221 216 226 242 251 236 227 225 229 230 232 237 239 239 233 228 226 241 239 226
192 237 255 258 256 254 254 256 249 241 236 235 237 236 237 239 245 238 225 223 230 238 243 235 213 213 226 240 222 231 236 241 237 226 223 233 245 237
199 240 248 253 257 255 252 251 250 249 237 233 236 236 234 234 233 239 239 238 239 240 236 223 212 212 234 253 241 216 227 236 233 234 229 233 243 246
233 244 251 254 254 255 255 253 253 252 242 237 235 234 231 232 232 234 236 242 244 242 235 222 219 221 231 246 253 253 225 223 223 232 238 240 252 260
246 248 252 255 256 256 256 253 250 248 244 234 234 233 231 230 235 238 236 230 231 231 231 235 238 231 234 214 235 251 252 227 222 227 228 229 243 244
254 255 260 262 259 256 253 250 251 252 245 237 238 235 232 228 233 235 234 230 226 231 241 246 233 215 211 222 237 246 257 260 223 231 250 236 230 231
259 260 263 263 259 256 252 250 251 252 248 244 240 235 229 228 231 231 233 232 228 230 230 234 230 228 232 229 236 244 245 251 249 255 281 272 236 240